Location: Kershaw
(34.5481°N, 80.5823°W)
Time: 22:02:57
(UTC+00:00)

Transit 4A - Pass Details

Date: 12 October 2022
Orbit: 871 x 972 km, 66.8° (Epoch: 08 December)

Event Time Altitude Azimuth Distance (km) Brightness Sun altitude
Rises 10:20:21 0° 335° (NNW) 3,473 10.7 -14.2°
Reaches altitude 10° 10:22:51 10° 338° (NNW) 2,526 10.0 -13.7°
Maximum altitude 10:28:40 73° 63° (ENE) 910 8.0 -12.5°
Drops below altitude 10° 10:34:28 10° 148° (SSE) 2,519 10.6 -11.3°
Sets 10:36:58 0° 150° (SSE) 3,462 11.4 -10.8°
